EUTELSAT 25B

Last updated on Tue Oct 13 2020 05:50:14 GMT+0000 (Coordinated Universal Time)

1 39233U 13044A 20286.85313368 .00000138 00000-0 00000-0 0 9999 2 39233 0.0552 9.7682 0001730 193.6926 151.0887 1.00275775 25846
UTC large
Height (km)
Speed (km/s)
/
Latitude / Longitude
Inclination (degrees)
Orbital Period (minutes)
Azimuth
Elevation
Range (km)
Doppler Factor

Next 0 passes for location: London (51.5072 / 0.1276)

Sorry there are no passes over London.
EUTELSAT 25B